TimeEDT,TemperatureF,Dew PointF,Humidity,Sea Level PressureIn,VisibilityMPH,Wind Direction,Wind SpeedMPH,Gust SpeedMPH,PrecipitationIn,Events,Conditions,WindDirDegrees,DateUTC
12:56 AM,50.0,43.9,79,29.74,10.0,West,6.9,-,N/A,,Mostly Cloudy,270,2013-11-02 04:56:00
1:56 AM,48.9,41.9,77,29.75,10.0,West,8.1,-,N/A,,Overcast,260,2013-11-02 05:56:00
2:56 AM,46.9,43.0,86,29.74,7.0,Calm,Calm,-,0.00,Rain,Light Rain,0,2013-11-02 06:56:00
3:56 AM,45.9,43.0,90,29.74,10.0,Calm,Calm,-,0.00,,Mostly Cloudy,0,2013-11-02 07:56:00
4:56 AM,45.0,41.9,89,29.74,10.0,Calm,Calm,-,N/A,,Scattered Clouds,0,2013-11-02 08:56:00
5:56 AM,41.9,41.0,97,29.75,10.0,Calm,Calm,-,N/A,,Clear,0,2013-11-02 09:56:00
6:56 AM,43.9,41.0,90,29.76,10.0,Calm,Calm,-,N/A,,Overcast,0,2013-11-02 10:56:00
7:16 AM,44.6,42.8,93,29.71,10.0,Calm,Calm,-,N/A,,Overcast,0,2013-11-02 11:16:00
7:56 AM,44.6,42.8,93,29.72,10.0,Calm,Calm,-,N/A,,Overcast,0,2013-11-02 11:56:00
8:56 AM,45.9,41.0,83,29.78,10.0,SW,4.6,-,N/A,,Mostly Cloudy,230,2013-11-02 12:56:00
9:56 AM,46.9,41.9,83,29.79,10.0,SW,8.1,-,N/A,,Mostly Cloudy,230,2013-11-02 13:56:00
10:56 AM,46.9,41.0,80,29.79,10.0,SW,10.4,-,N/A,,Overcast,230,2013-11-02 14:56:00
11:56 AM,46.9,41.9,83,29.81,7.0,West,12.7,-,N/A,,Overcast,260,2013-11-02 15:56:00
12:56 PM,47.8,41.9,80,29.82,9.0,WSW,16.1,20.7,0.00,Rain,Light Rain,250,2013-11-02 16:56:00
1:56 PM,48.2,41.0,76,29.77,10.0,West,11.5,18.4,N/A,Rain,Light Rain,270,2013-11-02 17:56:00
2:05 PM,46.4,42.8,87,29.77,9.0,West,9.2,-,0.00,Rain,Light Rain,270,2013-11-02 18:05:00
2:56 PM,50.0,41.9,74,29.82,10.0,WSW,9.2,-,0.00,,Mostly Cloudy,250,2013-11-02 18:56:00
3:29 PM,51.8,41.0,67,29.77,10.0,WSW,13.8,19.6,0.00,Rain,Light Rain,240,2013-11-02 19:29:00
3:56 PM,50.0,41.9,74,29.83,10.0,West,11.5,16.1,0.00,,Overcast,270,2013-11-02 19:56:00
4:18 PM,48.2,42.8,82,29.79,10.0,West,9.2,-,0.00,Rain,Light Rain,260,2013-11-02 20:18:00
4:45 PM,46.4,42.8,87,29.80,9.0,West,8.1,-,0.00,Rain,Light Rain,270,2013-11-02 20:45:00
4:56 PM,46.4,42.8,87,29.80,10.0,West,8.1,-,N/A,,Overcast,270,2013-11-02 20:56:00
5:14 PM,46.4,42.8,87,29.81,10.0,WSW,11.5,-,0.00,,Mostly Cloudy,250,2013-11-02 21:14:00
5:56 PM,45.0,41.9,89,29.90,7.0,West,8.1,-,0.00,Rain,Light Rain,270,2013-11-02 21:56:00
6:56 PM,43.0,41.0,93,29.93,10.0,West,4.6,-,0.00,,Partly Cloudy,280,2013-11-02 22:56:00
7:41 PM,44.6,42.8,93,29.88,10.0,West,9.2,-,N/A,,Mostly Cloudy,260,2013-11-02 23:41:00
7:56 PM,44.6,42.8,93,29.89,10.0,West,8.1,-,N/A,,Overcast,270,2013-11-02 23:56:00
8:16 PM,44.6,42.8,93,29.90,10.0,West,9.2,-,0.00,,Mostly Cloudy,270,2013-11-03 00:16:00
8:26 PM,44.6,42.8,93,29.90,10.0,West,6.9,-,0.00,,Overcast,280,2013-11-03 00:26:00
8:39 PM,44.6,41.0,87,29.91,10.0,WNW,5.8,-,0.00,,Overcast,300,2013-11-03 00:39:00
8:46 PM,44.6,41.0,87,29.91,10.0,NW,9.2,-,0.00,,Overcast,310,2013-11-03 00:46:00
8:56 PM,43.9,41.0,90,29.98,10.0,NW,4.6,-,0.00,,Overcast,320,2013-11-03 00:56:00
9:06 PM,44.6,41.0,87,29.92,10.0,NNW,8.1,-,N/A,,Overcast,330,2013-11-03 01:06:00
9:20 PM,42.8,39.2,87,29.93,10.0,NW,9.2,-,N/A,,Overcast,320,2013-11-03 01:20:00
9:56 PM,43.0,39.9,89,30.00,10.0,North,8.1,-,N/A,,Overcast,350,2013-11-03 01:56:00
10:31 PM,42.8,39.2,87,29.96,10.0,NNW,5.8,-,N/A,,Overcast,340,2013-11-03 02:31:00
10:56 PM,42.8,37.4,81,29.98,10.0,North,9.2,-,N/A,,Overcast,350,2013-11-03 02:56:00
11:21 PM,42.8,37.4,81,29.98,10.0,North,4.6,-,0.00,Rain,Light Rain,350,2013-11-03 03:21:00
11:48 PM,42.8,37.4,81,29.99,10.0,North,4.6,-,0.00,,Overcast,350,2013-11-03 03:48:00
11:56 PM,41.9,37.9,86,30.05,10.0,North,4.6,-,0.00,,Overcast,350,2013-11-03 03:56:00